User: anonymous   Login
Location: *
(35.8942°N, 23.3025°E)
Time: 18:20:10
(UTC+00:00)
Language:

Cosmos 2219 Rocket - Orbit

View from above orbital plane
View from above orbital plane
View from above satellite
View from above satellite

Ground track
Ground track

The orbit data is extracted from the following two-line orbital elements,

1 22220U 92076B   21333.70379316  .00000234  00000-0  14135-3 0  9996
2 22220  71.0006 235.3602 0014598 307.9364  78.6828 14.16478424500762
Epoch (UTC): 29 November 2021 16:53:27
Eccentricity: 0.0014598
inclination: 71.0006°
perigee height: 827 km
apogee height: 848 km
right ascension of ascending node: 235.3602°
argument of perigee: 307.9364°
revolutions per day: 14.16478424
mean anomaly at epoch: 78.6828°
orbit number at epoch: 50076

The dashed part of the orbit path shows where the satellite is in the earth's shadow,  

DLR